User: anonymous
Location: Indian Springs
(36.5700°N, 115.6700°W)
Time: 21:13:47
(UTC-07:00)
Language:

Cosmos 2278 Rocket - Orbit

View from above orbital plane
View from above orbital plane
View from above satellite
View from above satellite

Ground track
Ground track

The orbit data is extracted from the following two-line orbital elements,

1 23088U 94023B   14203.98688934  .00000016  00000-0  33198-4 0  9775
2 23088 071.0008 347.1679 0005394 273.4867 219.2746 14.14567834 45614
Epoch (UTC): 22 July 2014 23:41:07
Eccentricity: 0.0005394
inclination: 71.0008°
perigee height: 840 km
apogee height: 847 km
right ascension of ascending node: 347.1679°
argument of perigee: 273.4867°
revolutions per day: 14.14567834
mean anomaly at epoch: 219.2746°
orbit number at epoch: 4561

The dashed part of the orbit path shows where the satellite is in the earth's shadow,  

DLR